| time (UTC) | temp F | wind direction | speed knots | gust knots | rain 1hr in | rain 24hr in | rain mn in | humidity % | barometer mb |
| 20260502200026 | 67 | 216 | 4.3 | 10.4 | 0.00 | 0.00 | 0.00 | 78 | 1013.5 |
| 20260502194523 | 67 | 242 | 4.3 | 12.2 | 0.00 | 0.00 | 0.00 | 79 | 1013.9 |
| 20260502193019 | 66 | 255 | 2.6 | 8.7 | 0.00 | 0.00 | 0.00 | 81 | 1013.7 |
| 20260502191518 | 66 | 247 | 1.7 | 7.8 | 0.00 | 0.00 | 0.00 | 82 | 1013.9 |
| 20260502190015 | 65 | 254 | 0.9 | 7.8 | 0.00 | 0.00 | 0.00 | 83 | 1014.2 |
| 20260502184511 | 65 | 246 | 2.6 | 7.8 | 0.00 | 0.00 | 0.00 | 82 | 1014.3 |
| 20260502183022 | 65 | 231 | 4.3 | 8.7 | 0.00 | 0.00 | 0.00 | 82 | 1014.3 |
| 20260502181514 | 64 | 280 | 0.0 | 0.0 | 0.00 | 0.00 | 0.00 | 84 | 1014.2 |
| 20260502163057 | 61 | 242 | 0.9 | 5.2 | 0.00 | 0.00 | 0.00 | 90 | 1015.1 |
| 20260502161551 | 61 | 287 | 1.7 | 4.3 | 0.00 | 0.00 | 0.00 | 90 | 1015.0 |
| 20260502151540 | 0 | 0.0 | 0.0 | 0.00 | 0.00 | 0.00 | 1014.9 | ||
| 20260502123046 | 0 | 0.0 | 0.0 | 0.00 | 0.00 | 0.00 | 1013.7 | ||
| 20260502121539 | 0 | 0.0 | 0.0 | 0.00 | 0.00 | 0.00 | 1013.6 | ||
| 20260502114531 | 0 | 0.0 | 0.0 | 0.00 | 0.00 | 0.00 | 1013.4 | ||
| 20260502113028 | 61 | 270 | 0.0 | 3.5 | 0.00 | 0.00 | 0.00 | 91 | 1013.3 |
| 20260502111523 | 61 | 215 | 0.9 | 3.5 | 0.00 | 0.00 | 0.00 | 91 | 1013.3 |
| 20260502110022 | 61 | 289 | 0.0 | 0.0 | 0.00 | 0.00 | 0.00 | 91 | 1013.4 |
| 20260502104524 | 61 | 289 | 0.0 | 0.0 | 0.00 | 0.00 | 0.00 | 91 | 1013.1 |
| 20260502103022 | 61 | 289 | 0.0 | 2.6 | 0.00 | 0.00 | 0.00 | 92 | 1013.2 |
| 20260502101539 | 60 | 289 | 1.7 | 4.3 | 0.00 | 0.00 | 0.00 | 92 | 1013.0 |
| 20260502091514 | 60 | 277 | 1.7 | 4.3 | 0.00 | 0.00 | 0.00 | 93 | 1013.1 |
| 20260502070116 | 60 | 277 | 1.7 | 4.3 | 0.00 | 0.00 | 0.00 | 91 | 1014.0 |
| 20260502064557 | 60 | 277 | 1.7 | 3.5 | 0.00 | 0.00 | 0.00 | 91 | 1013.9 |
| 20260502063059 | 60 | 277 | 1.7 | 5.2 | 0.00 | 0.00 | 0.00 | 91 | 1014.0 |
| 20260502061554 | 61 | 278 | 0.0 | 6.1 | 0.00 | 0.00 | 0.00 | 90 | 1013.8 |
| 20260502060052 | 61 | 277 | 1.7 | 4.3 | 0.00 | 0.00 | 0.00 | 90 | 1013.8 |
| 20260502054555 | 61 | 279 | 2.6 | 6.1 | 0.00 | 0.00 | 0.00 | 90 | 1013.7 |
| 20260502053049 | 61 | 290 | 0.9 | 4.3 | 0.00 | 0.00 | 0.00 | 90 | 1013.9 |
| 20260502051610 | 61 | 286 | 2.6 | 6.1 | 0.00 | 0.00 | 0.00 | 90 | 1013.9 |
| 20260502050053 | 61 | 284 | 2.6 | 5.2 | 0.00 | 0.00 | 0.00 | 90 | 1013.8 |
| 20260502044548 | 62 | 286 | 2.6 | 7.8 | 0.00 | 0.00 | 0.00 | 90 | 1013.7 |
| 20260502043051 | 62 | 282 | 2.6 | 7.0 | 0.00 | 0.00 | 0.00 | 90 | 1013.5 |
| 20260502041548 | 62 | 264 | 1.7 | 10.4 | 0.00 | 0.00 | 0.00 | 89 | 1013.2 |
| 20260502040055 | 62 | 272 | 3.5 | 7.8 | 0.00 | 0.00 | 0.00 | 89 | 1013.1 |
| 20260502034541 | 62 | 285 | 4.3 | 9.6 | 0.00 | 0.00 | 0.00 | 89 | 1012.8 |
| 20260502033042 | 62 | 272 | 5.2 | 11.3 | 0.00 | 0.00 | 0.00 | 89 | 1012.6 |
| 20260502031541 | 62 | 273 | 6.1 | 11.3 | 0.00 | 0.00 | 0.00 | 88 | 1012.5 |
| 20260502030038 | 63 | 277 | 7.0 | 11.3 | 0.00 | 0.00 | 0.00 | 87 | 1012.4 |
| 20260502024539 | 63 | 305 | 7.0 | 13.0 | 0.00 | 0.00 | 0.00 | 87 | 1012.3 |
| 20260502023042 | 64 | 309 | 7.0 | 12.2 | 0.00 | 0.00 | 0.00 | 86 | 1012.1 |
| 20260502021533 | 64 | 306 | 7.0 | 13.0 | 0.00 | 0.00 | 0.00 | 85 | 1012.0 |
| 20260502020038 | 65 | 246 | 8.7 | 13.9 | 0.00 | 0.00 | 0.00 | 84 | 1011.8 |
| 20260502014532 | 65 | 288 | 10.4 | 15.6 | 0.00 | 0.00 | 0.00 | 84 | 1011.7 |
| 20260502013051 | 66 | 265 | 8.7 | 14.8 | 0.00 | 0.00 | 0.00 | 83 | 1011.6 |
| 20260502011528 | 67 | 267 | 7.8 | 14.8 | 0.00 | 0.00 | 0.00 | 81 | 1011.4 |
| 20260502010027 | 67 | 266 | 9.6 | 15.6 | 0.00 | 0.00 | 0.00 | 80 | 1011.5 |
| 20260502004525 | 68 | 267 | 9.6 | 14.8 | 0.00 | 0.00 | 0.00 | 79 | 1011.6 |
| 20260502003026 | 68 | 271 | 4.3 | 13.0 | 0.00 | 0.00 | 0.00 | 79 | 1011.6 |
| 20260502001523 | 68 | 223 | 7.0 | 10.4 | 0.00 | 0.00 | 0.00 | 77 | 1011.6 |
| 20260502000020 | 69 | 263 | 7.0 | 12.2 | 0.00 | 0.00 | 0.00 | 77 | 1011.7 |
| 20260501234518 | 68 | 259 | 9.6 | 13.9 | 0.00 | 0.00 | 0.00 | 77 | 1011.8 |
| 20260501233022 | 69 | 259 | 9.6 | 15.6 | 0.00 | 0.00 | 0.00 | 76 | 1011.8 |
| 20260501231517 | 70 | 279 | 7.8 | 12.2 | 0.00 | 0.00 | 0.00 | 74 | 1011.9 |
| 20260501230015 | 70 | 276 | 7.8 | 13.9 | 0.00 | 0.00 | 0.00 | 73 | 1012.1 |
| 20260501224512 | 70 | 286 | 6.1 | 14.8 | 0.00 | 0.00 | 0.00 | 73 | 1012.1 |
| 20260501223012 | 71 | 277 | 7.0 | 13.0 | 0.00 | 0.00 | 0.00 | 71 | 1012.3 |
| 20260501221511 | 71 | 242 | 4.3 | 11.3 | 0.00 | 0.00 | 0.00 | 72 | 1012.5 |
| 20260501220007 | 71 | 240 | 4.3 | 8.7 | 0.00 | 0.00 | 0.00 | 72 | 1012.7 |
| 20260501214505 | 71 | 227 | 4.3 | 10.4 | 0.00 | 0.00 | 0.00 | 71 | 1012.9 |
| 20260501213004 | 71 | 290 | 2.6 | 9.6 | 0.00 | 0.00 | 0.00 | 71 | 1013.0 |
| 20260501211559 | 71 | 232 | 7.0 | 13.0 | 0.00 | 0.00 | 0.00 | 70 | 1013.2 |
| 20260501210117 | 71 | 278 | 6.1 | 11.3 | 0.00 | 0.00 | 0.00 | 71 | 1013.2 |
| 20260501204559 | 70 | 255 | 5.2 | 13.0 | 0.00 | 0.00 | 0.00 | 71 | 1013.4 |
| 20260501203101 | 70 | 186 | 5.2 | 14.8 | 0.00 | 0.00 | 0.00 | 72 | 1013.5 |
| 20260501201559 | 71 | 231 | 6.1 | 10.4 | 0.00 | 0.00 | 0.00 | 72 | 1013.7 |